Bei Facebook empfehlenBei Twitter postenGoogle plusPinterest

Das Wetter im Erzgebirge am 14.01.2017

Wetter und Klima am 14.01.2017 Holzhau im Erzgebirge (630m ü.NN)
Letzte gemessene Temperatur und Uhrzeit der Messung23:45:00 Uhr-2.70 °C
Temperatur (Maximum / Höchstwert) und Uhrzeit der Messung09:15:00 Uhr-1.50 °C
Temperatur (Minimum / Tiefstwert) und Uhrzeit der Messung02:45:00-6.10 °C
Errechneter Absolutwert der Temperaturschwankungen zwischen Tmin und Tmax des Tages4.60 K
Errechnete Tagesmitteltemperatur-2.91875 °C
Gesamt - Niederschlag des Tages (in flüssiger Form)0.00 Liter / m²
Luftdruck (Maximum / Höchstwert) und Zeitpunkt der Messung23:45:00 Uhr1004.50 hPa
Luftdruck (Minimum / Tiefstwert) und Zeitpunkt der Messung07:15:00 Uhr993.40 hPa
Errechneter Absolutwert der Luftdruckschwankungen des Tages11.10 hPa
Höchste gemessene Windgeschwindigkeit und Uhrzeit der Messung03:30:00 Uhr14.76 km/h
Errechnete Windhäufigkeit in Relation zu den Messwerten des Tages11.45833 %
Niedrigste Windkühle (Windchill) und Zeitpunkt der Messung03:30:00 Uhr-11.10 °C
Taupunkt (Maximum / Höchstwert) und Uhrzeit der Messung09:15:00 Uhr-2.40 °C
Taupunkt (Minimum / Tiefstwert) und Uhrzeit der Messung02:45:00-7.60 °C
Anzahl der automatisch eingelesenen Messwerte 96

Detaillierte Wetter- und Klima- Messwerte für den 14.01.2017 in Holzhau im Erzgebirge (630m ü.NN)
ZeitTemperaturLuftdruckRel. LuftfeuchteWindWindrichtungWindchillTaupunktNiederschlag l/m²
23:45:00-2.70 °C1004.50 hPa90.00 %-4.30 °C 
23:30:00-2.80 °C1004.30 hPa90.00 %-4.40 °C 
23:15:00-2.80 °C1004.40 hPa90.00 %-4.40 °C 
23:00:00-2.90 °C1004.30 hPa90.00 %-4.50 °C 
22:45:00-3.00 °C1004.20 hPa90.00 %-4.60 °C 
22:30:00-3.10 °C1004.30 hPa90.00 %-4.70 °C 
22:15:00-3.10 °C1004.30 hPa91.00 %-4.50 °C 
22:00:00-3.00 °C1004.30 hPa91.00 %-4.40 °C 
21:45:00-2.90 °C1004.40 hPa90.00 %-4.50 °C 
21:30:00-2.80 °C1004.40 hPa90.00 %-4.40 °C 
21:15:00-2.70 °C1004.30 hPa89.00 %-4.40 °C 
21:00:00-2.70 °C1004.20 hPa89.00 %-4.40 °C 
20:45:00-2.70 °C1004.20 hPa89.00 %-4.40 °C 
20:30:00-2.70 °C1004.20 hPa90.00 %-4.30 °C 
20:15:00-2.70 °C1003.90 hPa90.00 %-4.30 °C 
20:00:00-2.70 °C1003.70 hPa90.00 %-4.30 °C 
19:45:00-2.80 °C1003.90 hPa90.00 %-4.40 °C 
19:30:00-2.70 °C1003.80 hPa91.00 %-4.10 °C 
19:15:00-2.70 °C1003.70 hPa90.00 %-4.30 °C 
19:00:00-2.70 °C1003.70 hPa91.00 %-4.10 °C 
18:45:00-2.60 °C1003.40 hPa91.00 %-4.00 °C 
18:30:00-2.60 °C1003.50 hPa91.00 %-4.00 °C 
18:15:00-2.50 °C1003.40 hPa91.00 %-3.90 °C 
18:00:00-2.60 °C1003.20 hPa91.00 %-4.00 °C 
17:45:00-2.50 °C1003.00 hPa91.00 %-3.90 °C 
17:30:00-2.50 °C1002.90 hPa91.00 %-3.90 °C 
17:15:00-2.50 °C1002.90 hPa92.00 %-3.80 °C 
17:00:00-2.50 °C1002.70 hPa92.00 %-3.80 °C 
16:45:00-2.50 °C1002.60 hPa92.00 %-3.80 °C 
16:30:00-2.60 °C1002.30 hPa91.00 %-4.00 °C 
16:15:00-2.40 °C1002.20 hPa91.00 %-3.80 °C 
16:00:00-2.40 °C1001.90 hPa91.00 %-3.80 °C 
15:45:00-2.20 °C1001.80 hPa91.00 %-3.60 °C 
15:30:00-2.10 °C1001.60 hPa92.00 %-3.40 °C 
15:15:00-2.00 °C1001.40 hPa92.00 %-3.30 °C 
15:00:00-2.00 °C1001.00 hPa93.00 %-3.10 °C 
14:45:00-2.10 °C1000.70 hPa93.00 %-3.20 °C 
14:30:00-2.10 °C1000.30 hPa94.00 %-3.00 °C 
14:15:00-2.20 °C1000.20 hPa94.00 %-3.10 °C 
14:00:00-2.40 °C1000.00 hPa94.00 %-3.30 °C 
13:45:00-2.50 °C999.60 hPa94.00 %-3.40 °C 
13:30:00-2.60 °C999.50 hPa94.00 %-3.50 °C 
13:15:00-2.50 °C999.40 hPa93.00 %-3.60 °C 
13:00:00-2.60 °C999.20 hPa93.00 %-3.70 °C 
12:45:00-2.40 °C999.10 hPa93.00 %-3.50 °C 
12:30:00-2.40 °C998.90 hPa93.00 %-3.50 °C 
12:15:00-2.10 °C998.40 hPa92.00 %-3.40 °C 
12:00:00-2.10 °C998.10 hPa92.00 %-3.40 °C 
11:45:00-2.10 °C997.80 hPa92.00 %-3.40 °C 
11:30:00-2.00 °C997.50 hPa92.00 %-3.30 °C 
11:15:00-1.80 °C997.10 hPa92.00 %-3.10 °C 
11:00:00-1.60 °C996.90 hPa92.00 %-2.90 °C 
10:45:00-1.60 °C996.70 hPa92.00 %-2.90 °C 
10:30:00-1.60 °C996.50 hPa93.00 %-2.70 °C 
10:15:00-1.70 °C996.20 hPa93.00 %-2.80 °C 
10:00:00-1.60 °C995.60 hPa93.00 %-2.70 °C 
09:45:00-1.60 °C995.30 hPa93.00 %-2.70 °C 
09:30:00-1.60 °C995.20 hPa93.00 %-2.70 °C 
09:15:00-1.50 °C994.80 hPa94.00 %-2.40 °C 
09:00:00-1.50 °C994.40 hPa94.00 %-2.40 °C 
08:45:00-1.60 °C994.30 hPa94.00 %-2.50 °C 
08:30:00-1.80 °C993.90 hPa94.00 %-2.70 °C 
08:15:00-1.90 °C993.70 hPa93.00 %-3.00 °C 
08:00:00-2.10 °C993.50 hPa93.00 %-3.20 °C 
07:45:00-2.40 °C993.60 hPa93.00 %-3.50 °C 
07:30:00-2.70 °C993.60 hPa92.00 %-3.90 °C 
07:15:00-2.80 °C993.40 hPa92.00 %-4.00 °C 
07:00:00-2.90 °C993.50 hPa92.00 %-4.10 °C 
06:45:00-3.20 °C993.50 hPa92.00 %-4.40 °C 
06:30:00-3.30 °C993.70 hPa92.00 %-4.50 °C 
06:15:00-3.40 °C993.90 hPa91.00 %-4.80 °C 
06:00:00-3.50 °C994.30 hPa91.00 %-4.90 °C 
05:45:00-3.50 °C994.40 hPa91.00 %-4.90 °C 
05:30:00-3.60 °C994.40 hPa90.00 %-5.20 °C 
05:15:00-3.70 °C994.50 hPa90.00 %-5.30 °C 
05:00:00-3.90 °C994.60 hPa90.00 %-5.50 °C 
04:45:00-4.10 °C994.80 hPa90.00 %1.80 km/hWSW-4.10 °C-5.70 °C 
04:30:00-4.40 °C994.80 hPa90.00 %5.40 km/hWNW-6.80 °C-6.00 °C 
04:15:00-4.80 °C995.10 hPa90.00 %3.24 km/hWNW-4.80 °C-6.40 °C 
04:00:00-5.20 °C995.30 hPa89.00 %4.68 km/hW-5.20 °C-6.90 °C 
03:45:00-5.40 °C995.60 hPa89.00 %0.72 km/hW-5.40 °C-7.10 °C 
03:30:00-5.50 °C995.90 hPa89.00 %14.76 km/hWNW-11.10 °C-7.20 °C 
03:15:00-5.60 °C996.00 hPa89.00 %-7.30 °C 
03:00:00-5.70 °C996.40 hPa90.00 %7.92 km/hNO-9.40 °C-7.20 °C 
02:45:00-6.10 °C996.60 hPa90.00 %10.08 km/hNNO-10.60 °C-7.60 °C 
02:30:00-5.90 °C996.80 hPa90.00 %-7.40 °C 
02:15:00-5.90 °C996.70 hPa90.00 %-7.40 °C 
02:00:00-5.50 °C996.60 hPa90.00 %-7.00 °C 
01:45:00-5.10 °C996.90 hPa89.00 %-6.80 °C 
01:30:00-4.40 °C996.90 hPa89.00 %-6.10 °C 
01:15:00-3.90 °C997.00 hPa89.00 %-5.60 °C 
01:00:00-3.20 °C997.20 hPa90.00 %-4.80 °C 
00:45:00-2.80 °C997.30 hPa90.00 %2.88 km/hNNW-2.80 °C-4.40 °C 
00:30:00-2.60 °C997.50 hPa90.00 %-4.20 °C 
00:15:00-2.50 °C997.60 hPa90.00 %4.68 km/hNNW-2.50 °C-4.10 °C 
00:00:00-2.40 °C997.70 hPa91.00 %1.44 km/hNNW-2.40 °C-3.80 °C 

Permanenter Link zu dieser Seite: Wetter im Erzgebirge am 14.01.2017
Performance-Info: Die Erstellung der Seite / Statistik(en) / Tabelle(n) erforderte 5 Datenbankserver-Abfrage(n) und dauerte 124 Millisekunden. (Dieser Messwert ist von der Gesamt-Auslastung des Servers abhängig.)
Erzgebirge - Wetter | Erzgebirge - Wetter (Mobilgeräte) | Komplette Klimadatenbank